| time (UTC) | temp C | wind direction | speed KPH | gust KPH | rain 1hr cm | rain 24hr cm | rain mn cm | humidity % | barometer mb |
| 20260506012044 | 10 | 101 | 3.2 | 4.8 | 0.03 | 0.66 | 0.03 | 93 | 1017.3 |
| 20260506011109 | 10 | 88 | 3.2 | 3.2 | 0.00 | 0.64 | 0.00 | 92 | 1017.4 |
| 20260506010029 | 10 | 89 | 3.2 | 3.2 | 0.00 | 0.64 | 0.00 | 92 | 1017.4 |
| 20260506005052 | 10 | 94 | 3.2 | 4.8 | 0.00 | 0.64 | 0.00 | 92 | 1017.4 |
| 20260506004117 | 10 | 110 | 3.2 | 4.8 | 0.00 | 0.64 | 0.00 | 92 | 1017.6 |
| 20260506003037 | 10 | 127 | 4.8 | 6.4 | 0.00 | 0.64 | 0.00 | 92 | 1017.8 |
| 20260506002100 | 11 | 119 | 4.8 | 6.4 | 0.00 | 0.64 | 0.00 | 92 | 1017.8 |
| 20260506001030 | 11 | 121 | 3.2 | 4.8 | 0.00 | 0.64 | 0.00 | 91 | 1017.7 |
| 20260506000125 | 11 | 124 | 3.2 | 6.4 | 0.00 | 0.64 | 0.00 | 91 | 1017.8 |
| 20260505235109 | 11 | 119 | 3.2 | 4.8 | 0.00 | 0.64 | 0.00 | 90 | 1017.8 |
| 20260505234030 | 11 | 83 | 1.6 | 4.8 | 0.00 | 0.64 | 0.00 | 90 | 1017.9 |
| 20260505233113 | 11 | 91 | 3.2 | 4.8 | 0.00 | 0.64 | 0.00 | 89 | 1017.8 |
| 20260505232117 | 11 | 112 | 3.2 | 4.8 | 0.00 | 0.64 | 0.00 | 89 | 1017.9 |
| 20260505231037 | 11 | 111 | 3.2 | 4.8 | 0.00 | 0.64 | 0.00 | 89 | 1017.9 |
| 20260505230101 | 11 | 90 | 3.2 | 4.8 | 0.00 | 0.64 | 0.00 | 89 | 1018.0 |
| 20260505225021 | 11 | 99 | 3.2 | 4.8 | 0.00 | 0.64 | 0.00 | 89 | 1017.9 |
| 20260505224044 | 11 | 116 | 3.2 | 6.4 | 0.00 | 0.64 | 0.00 | 88 | 1018.0 |
| 20260505223128 | 12 | 91 | 3.2 | 3.2 | 0.00 | 0.64 | 0.00 | 87 | 1018.0 |
| 20260505222028 | 12 | 69 | 0.0 | 1.6 | 0.00 | 0.64 | 0.00 | 86 | 1018.0 |
| 20260505221053 | 12 | 73 | 1.6 | 3.2 | 0.00 | 0.64 | 0.00 | 84 | 1018.0 |
| 20260505220119 | 12 | 0.0 | 0.0 | 0.00 | 0.64 | 0.00 | 83 | 1018.0 | |
| 20260505215036 | 12 | 0.0 | 1.6 | 0.00 | 0.64 | 0.64 | 81 | 1018.0 | |
| 20260505214100 | 12 | 29 | 1.6 | 3.2 | 0.00 | 0.64 | 0.64 | 81 | 1018.0 |
| 20260505213021 | 12 | 32 | 1.6 | 1.6 | 0.00 | 0.64 | 0.64 | 81 | 1017.9 |
| 20260505212045 | 12 | 36 | 0.0 | 3.2 | 0.00 | 0.64 | 0.64 | 81 | 1018.0 |
| 20260505211108 | 12 | 42 | 1.6 | 3.2 | 0.00 | 0.64 | 0.64 | 81 | 1017.9 |
| 20260505210028 | 13 | 33 | 1.6 | 4.8 | 0.00 | 0.64 | 0.64 | 81 | 1017.9 |
| 20260505205053 | 13 | 26 | 3.2 | 6.4 | 0.00 | 0.64 | 0.64 | 80 | 1017.9 |
| 20260505204136 | 13 | 12 | 3.2 | 9.7 | 0.00 | 0.64 | 0.64 | 80 | 1018.0 |
| 20260505203037 | 13 | 2 | 3.2 | 6.4 | 0.00 | 0.64 | 0.64 | 81 | 1018.0 |
| 20260505202101 | 13 | 354 | 3.2 | 6.4 | 0.00 | 0.64 | 0.64 | 81 | 1017.8 |
| 20260505201020 | 13 | 7 | 3.2 | 4.8 | 0.00 | 0.64 | 0.64 | 80 | 1017.7 |
| 20260505200045 | 13 | 354 | 4.8 | 9.7 | 0.00 | 0.64 | 0.64 | 80 | 1017.6 |
| 20260505195149 | 13 | 349 | 4.8 | 9.7 | 0.00 | 0.64 | 0.64 | 79 | 1017.7 |
| 20260505194029 | 13 | 2 | 3.2 | 12.9 | 0.00 | 0.64 | 0.64 | 78 | 1017.5 |
| 20260505193053 | 13 | 13 | 3.2 | 9.7 | 0.00 | 0.64 | 0.64 | 77 | 1017.5 |
| 20260505192117 | 14 | 23 | 3.2 | 9.7 | 0.00 | 0.64 | 0.64 | 76 | 1017.4 |
| 20260505191037 | 14 | 8 | 4.8 | 9.7 | 0.00 | 0.64 | 0.64 | 74 | 1017.3 |
| 20260505190100 | 15 | 332 | 6.4 | 9.7 | 0.00 | 0.64 | 0.64 | 74 | 1017.4 |
| 20260505185020 | 14 | 310 | 4.8 | 9.7 | 0.00 | 0.64 | 0.64 | 76 | 1017.3 |
| 20260505184045 | 14 | 3 | 3.2 | 12.9 | 0.00 | 0.69 | 0.64 | 76 | 1017.3 |
| 20260505183109 | 15 | 12 | 3.2 | 11.3 | 0.00 | 0.69 | 0.64 | 75 | 1017.1 |
| 20260505182029 | 15 | 357 | 3.2 | 6.4 | 0.00 | 0.69 | 0.64 | 75 | 1017.1 |
| 20260505181053 | 15 | 4 | 4.8 | 11.3 | 0.00 | 0.69 | 0.64 | 75 | 1017.2 |
| 20260505180117 | 15 | 33 | 3.2 | 11.3 | 0.00 | 0.69 | 0.64 | 75 | 1017.2 |
| 20260505175037 | 15 | 346 | 4.8 | 11.3 | 0.00 | 0.69 | 0.64 | 75 | 1017.3 |
| 20260505174100 | 15 | 357 | 4.8 | 16.1 | 0.00 | 0.69 | 0.64 | 75 | 1017.3 |
| 20260505173020 | 15 | 359 | 4.8 | 11.3 | 0.00 | 0.69 | 0.64 | 76 | 1017.3 |
| 20260505172044 | 15 | 344 | 8.0 | 14.5 | 0.00 | 0.69 | 0.64 | 74 | 1017.2 |
| 20260505171109 | 15 | 321 | 8.0 | 14.5 | 0.00 | 0.69 | 0.64 | 76 | 1017.2 |
| 20260505170028 | 15 | 322 | 9.7 | 17.7 | 0.00 | 0.69 | 0.64 | 75 | 1017.2 |
| 20260505165053 | 15 | 10 | 6.4 | 14.5 | 0.00 | 0.69 | 0.64 | 74 | 1017.2 |
| 20260505164136 | 16 | 325 | 8.0 | 14.5 | 0.00 | 0.69 | 0.64 | 70 | 1017.2 |
| 20260505163036 | 16 | 353 | 6.4 | 14.5 | 0.00 | 0.69 | 0.64 | 68 | 1017.1 |
| 20260505162101 | 16 | 324 | 6.4 | 14.5 | 0.00 | 0.69 | 0.64 | 69 | 1017.0 |
| 20260505161041 | 15 | 354 | 8.0 | 14.5 | 0.00 | 0.69 | 0.64 | 71 | 1017.1 |
| 20260505153053 | 15 | 344 | 8.0 | 16.1 | 0.00 | 0.69 | 0.64 | 72 | 1017.1 |
| 20260505152117 | 15 | 340 | 8.0 | 14.5 | 0.00 | 0.76 | 0.64 | 72 | 1017.1 |
| 20260505151036 | 15 | 0 | 6.4 | 14.5 | 0.00 | 0.76 | 0.64 | 73 | 1017.1 |
| 20260505140118 | 14 | 358 | 4.8 | 14.5 | 0.00 | 0.76 | 0.64 | 76 | 1017.2 |
| 20260505124137 | 14 | 357 | 6.4 | 16.1 | 0.10 | 0.76 | 0.64 | 80 | 1016.9 |
| 20260505123037 | 13 | 358 | 6.4 | 14.5 | 0.10 | 0.79 | 0.64 | 83 | 1016.9 |
| 20260505122100 | 14 | 12 | 3.2 | 12.9 | 0.10 | 0.79 | 0.64 | 81 | 1017.0 |
| 20260505121020 | 15 | 4 | 6.4 | 12.9 | 0.00 | 0.69 | 0.53 | 76 | 1017.0 |
| 20260505120044 | 15 | 8 | 3.2 | 12.9 | 0.00 | 0.69 | 0.53 | 73 | 1017.0 |
| 20260505115109 | 15 | 331 | 6.4 | 12.9 | 0.00 | 0.69 | 0.53 | 72 | 1016.9 |
| 20260505114028 | 15 | 2 | 8.0 | 16.1 | 0.00 | 0.69 | 0.53 | 72 | 1017.0 |
| 20260505113112 | 15 | 348 | 4.8 | 12.9 | 0.00 | 0.69 | 0.53 | 73 | 1017.0 |
| 20260505112116 | 15 | 5 | 4.8 | 16.1 | 0.00 | 0.69 | 0.53 | 71 | 1016.9 |
| 20260505111037 | 15 | 340 | 4.8 | 14.5 | 0.00 | 0.69 | 0.53 | 70 | 1016.7 |
| 20260505102028 | 13 | 6 | 6.4 | 14.5 | 0.00 | 0.69 | 0.53 | 80 | 1017.0 |
| 20260505101112 | 14 | 330 | 6.4 | 12.9 | 0.00 | 0.69 | 0.53 | 79 | 1016.7 |
| 20260505100116 | 15 | 341 | 6.4 | 12.9 | 0.00 | 0.69 | 0.53 | 74 | 1016.6 |
| 20260505095036 | 15 | 356 | 3.2 | 11.3 | 0.00 | 0.69 | 0.53 | 77 | 1016.5 |
| 20260505094100 | 14 | 351 | 6.4 | 16.1 | 0.00 | 0.69 | 0.53 | 81 | 1016.5 |
| 20260505093020 | 13 | 10 | 3.2 | 6.4 | 0.00 | 0.69 | 0.53 | 88 | 1016.6 |
| 20260505092104 | 12 | 34 | 0.0 | 3.2 | 0.00 | 0.69 | 0.53 | 90 | 1016.5 |
| 20260505091108 | 12 | 40 | 0.0 | 1.6 | 0.00 | 0.69 | 0.53 | 91 | 1016.5 |
| 20260505090028 | 12 | 79 | 1.6 | 6.4 | 0.00 | 0.69 | 0.53 | 91 | 1016.5 |
| 20260505085052 | 12 | 77 | 3.2 | 6.4 | 0.00 | 0.69 | 0.53 | 92 | 1016.3 |
| 20260505084137 | 11 | 112 | 6.4 | 12.9 | 0.00 | 0.69 | 0.53 | 93 | 1016.4 |
| 20260505083037 | 11 | 139 | 4.8 | 12.9 | 0.00 | 0.69 | 0.53 | 93 | 1016.4 |
| 20260505082100 | 10 | 102 | 4.8 | 12.9 | 0.00 | 0.69 | 0.53 | 94 | 1016.4 |
| 20260505081040 | 10 | 103 | 6.4 | 11.3 | 0.00 | 0.69 | 0.53 | 94 | 1016.4 |
| 20260505080044 | 10 | 123 | 4.8 | 11.3 | 0.03 | 0.69 | 0.53 | 94 | 1016.4 |
| 20260505075109 | 10 | 135 | 6.4 | 12.9 | 0.10 | 0.69 | 0.53 | 94 | 1016.5 |
| 20260505074029 | 10 | 111 | 3.2 | 6.4 | 0.10 | 0.69 | 0.53 | 93 | 1016.5 |
| 20260505073053 | 10 | 109 | 3.2 | 4.8 | 0.10 | 0.69 | 0.53 | 93 | 1016.4 |
| 20260505072116 | 10 | 111 | 3.2 | 4.8 | 0.18 | 0.69 | 0.53 | 93 | 1016.5 |
| 20260505071036 | 10 | 88 | 1.6 | 4.8 | 0.25 | 0.69 | 0.53 | 93 | 1016.3 |
| 20260505070121 | 10 | 107 | 4.8 | 6.4 | 0.25 | 0.66 | 0.51 | 93 | 1016.1 |
| 20260505065020 | 10 | 151 | 4.8 | 9.7 | 0.23 | 0.58 | 0.43 | 93 | 1016.1 |
| 20260505064044 | 10 | 131 | 6.4 | 11.3 | 0.30 | 0.58 | 0.43 | 93 | 1016.1 |
| 20260505063149 | 10 | 93 | 4.8 | 9.7 | 0.36 | 0.58 | 0.43 | 93 | 1016.2 |
| 20260505062029 | 10 | 103 | 3.2 | 9.7 | 0.30 | 0.51 | 0.36 | 93 | 1016.2 |
| 20260505061053 | 10 | 124 | 4.8 | 9.7 | 0.25 | 0.43 | 0.28 | 93 | 1016.0 |
| 20260505060116 | 10 | 142 | 4.8 | 9.7 | 0.25 | 0.41 | 0.25 | 93 | 1016.1 |
| 20260505055036 | 10 | 146 | 6.4 | 9.7 | 0.20 | 0.36 | 0.20 | 92 | 1016.0 |
| 20260505054100 | 10 | 137 | 4.8 | 6.4 | 0.13 | 0.28 | 0.13 | 91 | 1016.1 |
| 20260505053020 | 10 | 98 | 3.2 | 4.8 | 0.08 | 0.23 | 0.08 | 91 | 1016.1 |
| 20260505052044 | 10 | 117 | 4.8 | 6.4 | 0.05 | 0.20 | 0.05 | 90 | 1015.9 |
| 20260505051109 | 10 | 118 | 4.8 | 6.4 | 0.03 | 0.18 | 0.03 | 90 | 1016.0 |
| 20260505041021 | 10 | 92 | 4.8 | 11.3 | 0.00 | 0.15 | 0.00 | 89 | 1016.0 |
| 20260505040044 | 10 | 109 | 4.8 | 9.7 | 0.00 | 0.15 | 0.00 | 90 | 1016.0 |
| 20260505035108 | 10 | 97 | 4.8 | 9.7 | 0.00 | 0.15 | 0.00 | 91 | 1016.1 |
| 20260505034048 | 10 | 113 | 4.8 | 6.4 | 0.00 | 0.15 | 0.00 | 91 | 1016.1 |
| 20260505033133 | 10 | 116 | 4.8 | 9.7 | 0.00 | 0.15 | 0.00 | 91 | 1016.0 |
| 20260505032116 | 10 | 125 | 8.0 | 12.9 | 0.00 | 0.15 | 0.00 | 91 | 1016.3 |
| 20260505031036 | 10 | 127 | 4.8 | 9.7 | 0.00 | 0.15 | 0.00 | 91 | 1016.2 |
| 20260505030100 | 10 | 123 | 4.8 | 9.7 | 0.00 | 0.15 | 0.00 | 91 | 1016.1 |
| 20260505025041 | 10 | 90 | 3.2 | 4.8 | 0.00 | 0.15 | 0.00 | 91 | 1016.4 |
| 20260505024044 | 10 | 104 | 4.8 | 9.7 | 0.00 | 0.15 | 0.00 | 91 | 1016.3 |
| 20260505023109 | 10 | 111 | 4.8 | 9.7 | 0.00 | 0.15 | 0.00 | 91 | 1016.3 |
| 20260505022028 | 10 | 122 | 6.4 | 9.7 | 0.00 | 0.15 | 0.00 | 90 | 1016.2 |
| 20260505021053 | 10 | 118 | 4.8 | 9.7 | 0.00 | 0.15 | 0.00 | 90 | 1016.3 |
| 20260505020117 | 10 | 118 | 4.8 | 11.3 | 0.00 | 0.18 | 0.00 | 90 | 1016.5 |
| 20260505015057 | 10 | 124 | 4.8 | 9.7 | 0.00 | 0.18 | 0.00 | 89 | 1016.5 |
| 20260505014100 | 10 | 127 | 4.8 | 9.7 | 0.00 | 0.18 | 0.00 | 89 | 1016.5 |
| 20260505013021 | 10 | 135 | 4.8 | 6.4 | 0.00 | 0.18 | 0.00 | 89 | 1016.7 |